Orbital Elements at Epoch 2459000.5 (2020-May-31.0) TDB
Reference: JPL 21 (heliocentric ecliptic J2000)
Element | Value | Uncertainty (1-sigma) | Units |
e | .1540729207375001 | 4.589e-08 | |
a | 2.293149929862437 | 1.1059e-08 | au |
q | 1.939837622479538 | 1.0827e-07 | au |
i | 5.772896971147319 | 5.0775e-06 | deg |
node | 243.5954494069046 | 3.6432e-05 | deg |
peri | 109.482771153653 | 3.9955e-05 | deg |
M | 251.606400682345 | 1.8977e-05 | deg |
tp | 2459382.398752407038 (2021-Jun-16.89875241) | 6.826e-05 | TDB |
period | 1268.373333222642 3.47 | 9.175e-06 2.512e-08 | d yr |
n | .2838281053144847 | 2.0531e-09 | deg/d |
Q | 2.646462237245336 | 1.2762e-08 | au |
|
| | Orbit Determination Parameters
Additional Information
|